ANZ66R NZQN-NZWN

Flight info

Callsign ANZ66R
Flight time 1h 2m
Altitude 37000
Route ADLUP Y615 ELDAK Q196 CH Y393 WN
Aircraft A320/M-SDE3FGHIRWY/LB1

Departure

Time 2026-04-27 20:14
Airport Queenstown Airport (NZQN)

Arrival

Time 2026-04-27 21:16
Airport Wellington International Airport (NZWN)
Time Latitude Longitude Altitude Speed Heading
2026-04-27 20:12 -45.01958 168.74035 1164 ft 8 kts 346°
2026-04-27 20:12 -45.01959 168.73892 1168 ft 23 kts 256°
2026-04-27 20:12 -45.01997 168.73651 1167 ft 26 kts 257°
2026-04-27 20:12 -45.02010 168.73528 1163 ft 4 kts
2026-04-27 20:13 -45.02003 168.73555 1167 ft 0 kts 74°
2026-04-27 20:13 -45.01998 168.73584 1164 ft 23 kts 76°
2026-04-27 20:13 -45.01898 168.74216 1167 ft 107 kts 77°
2026-04-27 20:13 -45.01681 168.75537 1318 ft 157 kts 77°
2026-04-27 20:14 -45.01430 168.77082 1938 ft 167 kts 76°
2026-04-27 20:14 -45.01180 168.78718 2635 ft 172 kts 77°
2026-04-27 20:14 -45.00950 168.80340 3325 ft 163 kts 77°
2026-04-27 20:14 -45.00695 168.81878 3828 ft 162 kts 68°
2026-04-27 20:15 -45.00105 168.83279 4051 ft 172 kts 44°
2026-04-27 20:15 -44.99135 168.84314 4338 ft 180 kts 25°
2026-04-27 20:15 -44.97916 168.84739 4661 ft 184 kts 356°
2026-04-27 20:15 -44.96638 168.84415 4967 ft 190 kts 334°
2026-04-27 20:16 -44.95615 168.83186 5167 ft 203 kts 300°
2026-04-27 20:16 -44.95282 168.81180 5243 ft 226 kts 264°
2026-04-27 20:16 -44.95953 168.79086 5381 ft 252 kts 227°
2026-04-27 20:16 -44.97508 168.77705 5852 ft 272 kts 206°
2026-04-27 20:17 -44.99248 168.76652 6847 ft 272 kts 205°
2026-04-27 20:17 -45.00998 168.75639 7759 ft 272 kts 205°
2026-04-27 20:17 -45.02868 168.75109 8618 ft 281 kts 185°
2026-04-27 20:17 -45.04807 168.75111 9459 ft 281 kts 185°
2026-04-27 20:18 -45.06758 168.75112 10333 ft 281 kts 185°
2026-04-27 20:18 -45.08696 168.75065 11237 ft 277 kts 187°
2026-04-27 20:18 -45.10648 168.74941 11805 ft 284 kts 187°
2026-04-27 20:18 -45.12647 168.74969 12482 ft 292 kts 180°
2026-04-27 20:19 -45.14689 168.75234 13095 ft 301 kts 178°
2026-04-27 20:19 -45.16808 168.75558 13644 ft 309 kts 177°
2026-04-27 20:19 -45.18957 168.75912 14390 ft 310 kts 177°
2026-04-27 20:19 -45.21111 168.76270 15004 ft 314 kts 177°
2026-04-27 20:20 -45.23287 168.76623 15717 ft 314 kts 177°
2026-04-27 20:20 -45.25456 168.76973 16468 ft 313 kts 177°
2026-04-27 20:20 -45.27613 168.77317 17247 ft 311 kts 177°
2026-04-27 20:20 -45.29760 168.77655 18020 ft 309 kts 177°
2026-04-27 20:21 -45.31891 168.77988 18747 ft 307 kts 177°
2026-04-27 20:21 -45.34013 168.78321 19391 ft 306 kts 177°
2026-04-27 20:21 -45.36097 168.78650 20016 ft 305 kts 177°
2026-04-27 20:21 -45.38204 168.78976 20597 ft 305 kts 177°
2026-04-27 20:22 -45.40326 168.79302 21077 ft 308 kts 177°
2026-04-27 20:22 -45.42469 168.79632 21582 ft 311 kts 177°
2026-04-27 20:22 -45.44630 168.79970 22090 ft 313 kts 176°
2026-04-27 20:22 -45.46715 168.80927 22600 ft 324 kts 152°
2026-04-27 20:23 -45.48374 168.83239 22715 ft 348 kts 124°
2026-04-27 20:23 -45.49319 168.86499 22862 ft 368 kts 105°
2026-04-27 20:23 -45.49740 168.90175 22988 ft 382 kts 101°
2026-04-27 20:23 -45.50130 168.93987 23113 ft 395 kts 101°
2026-04-27 20:24 -45.50528 168.97932 23260 ft 408 kts 101°
2026-04-27 20:24 -45.50935 169.02004 23397 ft 421 kts 100°
2026-04-27 20:24 -45.51352 169.06189 23655 ft 430 kts 100°
2026-04-27 20:24 -45.51775 169.10436 24020 ft 434 kts 100°
2026-04-27 20:25 -45.52200 169.14715 24401 ft 437 kts 100°
2026-04-27 20:25 -45.52624 169.19016 24782 ft 439 kts 100°
2026-04-27 20:25 -45.53046 169.23343 25178 ft 442 kts 101°
2026-04-27 20:25 -45.53376 169.27717 25547 ft 446 kts 94°
2026-04-27 20:26 -45.53215 169.32145 25902 ft 451 kts 83°
2026-04-27 20:26 -45.52512 169.36522 26263 ft 455 kts 73°
2026-04-27 20:26 -45.51327 169.40726 26622 ft 459 kts 68°
2026-04-27 20:26 -45.50042 169.44906 26989 ft 461 kts 68°
2026-04-27 20:27 -45.48751 169.49116 27327 ft 464 kts 68°
2026-04-27 20:27 -45.47471 169.53291 27674 ft 466 kts 68°
2026-04-27 20:27 -45.46170 169.57531 28022 ft 468 kts 68°
2026-04-27 20:27 -45.44857 169.61796 28359 ft 471 kts 68°
2026-04-27 20:28 -45.43533 169.66085 28685 ft 473 kts 68°
2026-04-27 20:28 -45.42203 169.70396 29018 ft 476 kts 68°
2026-04-27 20:28 -45.40866 169.74709 29333 ft 478 kts 68°
2026-04-27 20:28 -45.39973 169.77581 29578 ft 479 kts 68°
2026-04-27 20:29 -45.37955 169.83161 30188 ft 480 kts 58°
2026-04-27 20:29 -45.35943 169.86947 30582 ft 481 kts 49°
2026-04-27 20:29 -45.33588 169.90331 30972 ft 481 kts 45°
2026-04-27 20:29 -45.31193 169.93635 31397 ft 479 kts 45°
2026-04-27 20:30 -45.28807 169.96930 31820 ft 478 kts 45°
2026-04-27 20:30 -45.26419 170.00227 32222 ft 477 kts 45°
2026-04-27 20:30 -45.24042 170.03509 32616 ft 477 kts 45°
2026-04-27 20:30 -45.21670 170.06789 33007 ft 476 kts 45°
2026-04-27 20:31 -45.19297 170.10069 33405 ft 476 kts 45°
2026-04-27 20:31 -45.16923 170.13341 33800 ft 475 kts 45°
2026-04-27 20:31 -45.14551 170.16595 34193 ft 475 kts 44°
2026-04-27 20:31 -45.12173 170.19845 34563 ft 474 kts 44°
2026-04-27 20:32 -45.09806 170.23079 34902 ft 473 kts 44°
2026-04-27 20:32 -45.07439 170.26310 35212 ft 473 kts 44°
2026-04-27 20:32 -45.05071 170.29539 35521 ft 472 kts 44°
2026-04-27 20:32 -45.02703 170.32761 35813 ft 472 kts 44°
2026-04-27 20:33 -45.00338 170.35976 36108 ft 472 kts 44°
2026-04-27 20:33 -44.98005 170.39144 36385 ft 471 kts 44°
2026-04-27 20:33 -44.95644 170.42350 36669 ft 470 kts 43°
2026-04-27 20:33 -44.93286 170.45551 36981 ft 469 kts 44°
2026-04-27 20:34 -44.90930 170.48751 37210 ft 469 kts 44°
2026-04-27 20:34 -44.88564 170.51957 37261 ft 473 kts 44°
2026-04-27 20:34 -44.83784 170.58417 37253 ft 477 kts 44°
2026-04-27 20:35 -44.78982 170.64901 37249 ft 478 kts 43°
2026-04-27 20:35 -44.74208 170.71321 37252 ft 477 kts 43°
2026-04-27 20:36 -44.69390 170.77765 37244 ft 477 kts 43°
2026-04-27 20:36 -44.64571 170.84202 37247 ft 477 kts 43°
2026-04-27 20:37 -44.59763 170.90629 37251 ft 477 kts 43°
2026-04-27 20:37 -44.54953 170.97039 37257 ft 478 kts 42°
2026-04-27 20:38 -44.50154 171.03412 37255 ft 478 kts 42°
2026-04-27 20:38 -44.45330 171.09807 37253 ft 478 kts 42°
2026-04-27 20:39 -44.40488 171.16214 37250 ft 478 kts 42°
2026-04-27 20:39 -44.35649 171.22586 37245 ft 478 kts 42°
2026-04-27 20:40 -44.30814 171.28957 37263 ft 478 kts 42°
2026-04-27 20:40 -44.25972 171.35307 37246 ft 478 kts 41°
2026-04-27 20:41 -44.21154 171.41614 37244 ft 478 kts 41°
2026-04-27 20:41 -44.16298 171.47962 37247 ft 478 kts 41°
2026-04-27 20:42 -44.11443 171.54298 37247 ft 478 kts 41°
2026-04-27 20:42 -44.06571 171.60625 37241 ft 478 kts 41°
2026-04-27 20:43 -44.01702 171.66934 37256 ft 479 kts 41°
2026-04-27 20:43 -43.96832 171.73249 37255 ft 479 kts 41°
2026-04-27 20:44 -43.91994 171.79622 37239 ft 481 kts 46°
2026-04-27 20:44 -43.87775 171.86837 37244 ft 482 kts 50°
2026-04-27 20:45 -43.83645 171.94068 37253 ft 482 kts 50°
2026-04-27 20:45 -43.79467 172.01344 37254 ft 482 kts 50°
2026-04-27 20:46 -43.75286 172.08593 37246 ft 482 kts 49°
2026-04-27 20:46 -43.71101 172.15835 37256 ft 482 kts 49°
2026-04-27 20:47 -43.66921 172.23074 37263 ft 482 kts 50°
2026-04-27 20:47 -43.62740 172.30306 37264 ft 482 kts 49°
2026-04-27 20:48 -43.59250 172.36300 37260 ft 481 kts 49°
2026-04-27 20:48 -43.55053 172.43498 37261 ft 482 kts 49°
2026-04-27 20:49 -43.50773 172.50596 37232 ft 480 kts 42°
2026-04-27 20:49 -43.45643 172.56363 37232 ft 475 kts 33°
2026-04-27 20:50 -43.40375 172.61764 37235 ft 476 kts 33°
2026-04-27 20:50 -43.35075 172.67201 37226 ft 476 kts 33°
2026-04-27 20:51 -43.29765 172.72633 37242 ft 476 kts 33°
2026-04-27 20:51 -43.24450 172.78055 37259 ft 476 kts 32°
2026-04-27 20:52 -43.19126 172.83461 37255 ft 476 kts 32°
2026-04-27 20:52 -43.13798 172.88860 37267 ft 476 kts 32°
2026-04-27 20:53 -43.08475 172.94256 37275 ft 476 kts 32°
2026-04-27 20:53 -43.03150 172.99645 37274 ft 476 kts 32°
2026-04-27 20:54 -42.95155 173.07705 37268 ft 476 kts 32°
2026-04-27 20:55 -42.89868 173.13033 37275 ft 475 kts 32°
2026-04-27 20:55 -42.84537 173.18376 37288 ft 474 kts 32°
2026-04-27 20:56 -42.80129 173.22784 37270 ft 472 kts 31°
2026-04-27 20:56 -42.73872 173.29034 36603 ft 475 kts 32°
2026-04-27 20:56 -42.71168 173.31724 35460 ft 486 kts 32°
2026-04-27 20:57 -42.68426 173.34452 34513 ft 492 kts 32°
2026-04-27 20:57 -42.65652 173.37214 33539 ft 495 kts 32°
2026-04-27 20:57 -42.62870 173.39982 32517 ft 497 kts 33°
2026-04-27 20:57 -42.60071 173.42760 31490 ft 500 kts 33°
2026-04-27 20:58 -42.57255 173.45553 30682 ft 498 kts 33°
2026-04-27 20:58 -42.54461 173.48319 29784 ft 496 kts 33°
2026-04-27 20:58 -42.51682 173.51063 28980 ft 492 kts 32°
2026-04-27 20:58 -42.48920 173.53792 28275 ft 488 kts 33°
2026-04-27 20:59 -42.46195 173.56489 27578 ft 483 kts 32°
2026-04-27 20:59 -42.43504 173.59147 26716 ft 474 kts 32°
2026-04-27 20:59 -42.40892 173.61724 25613 ft 467 kts 32°
2026-04-27 20:59 -42.38290 173.64285 24574 ft 460 kts 32°
2026-04-27 21:00 -42.35709 173.66818 23988 ft 455 kts 32°
2026-04-27 21:00 -42.33163 173.69318 23425 ft 449 kts 32°
2026-04-27 21:00 -42.30650 173.71780 22923 ft 443 kts 32°
2026-04-27 21:00 -42.28171 173.74204 22426 ft 437 kts 32°
2026-04-27 21:01 -42.25719 173.76605 21934 ft 433 kts 32°
2026-04-27 21:01 -42.23290 173.78979 21420 ft 429 kts 33°
2026-04-27 21:01 -42.20882 173.81327 20966 ft 426 kts 33°
2026-04-27 21:01 -42.18490 173.83661 20467 ft 424 kts 33°
2026-04-27 21:02 -42.16104 173.85987 19966 ft 422 kts 33°
2026-04-27 21:02 -42.13733 173.88298 19455 ft 420 kts 33°
2026-04-27 21:02 -42.11363 173.90603 18940 ft 418 kts 33°
2026-04-27 21:02 -42.09009 173.92888 18370 ft 417 kts 33°
2026-04-27 21:03 -42.06658 173.95166 17815 ft 414 kts 33°
2026-04-27 21:03 -42.04356 173.97398 17281 ft 411 kts 33°
2026-04-27 21:03 -42.02048 173.99634 16748 ft 407 kts 33°
2026-04-27 21:03 -41.99757 174.01851 16206 ft 404 kts 33°
2026-04-27 21:04 -41.97487 174.04048 15669 ft 400 kts 34°
2026-04-27 21:04 -41.95237 174.06220 15168 ft 396 kts 34°
2026-04-27 21:04 -41.93044 174.08337 15053 ft 380 kts 34°
2026-04-27 21:04 -41.90939 174.10371 14966 ft 365 kts 34°
2026-04-27 21:05 -41.88905 174.12337 14589 ft 360 kts 34°
2026-04-27 21:05 -41.86836 174.14331 13849 ft 368 kts 34°
2026-04-27 21:05 -41.84761 174.16329 13327 ft 366 kts 34°
2026-04-27 21:05 -41.82694 174.18315 12827 ft 363 kts 34°
2026-04-27 21:06 -41.80642 174.20290 12098 ft 367 kts 34°
2026-04-27 21:06 -41.78568 174.22283 11546 ft 365 kts 34°
2026-04-27 21:06 -41.76504 174.24260 11044 ft 362 kts 34°
2026-04-27 21:06 -41.74477 174.26238 10547 ft 359 kts 38°
2026-04-27 21:07 -41.72772 174.28556 10366 ft 348 kts 51°
2026-04-27 21:07 -41.71403 174.31158 10252 ft 335 kts 55°
2026-04-27 21:07 -41.70114 174.33692 10130 ft 324 kts 54°
2026-04-27 21:07 -41.68867 174.36142 9994 ft 313 kts 54°
2026-04-27 21:08 -41.67659 174.38521 9737 ft 307 kts 55°
2026-04-27 21:08 -41.66455 174.40887 9393 ft 305 kts 55°
2026-04-27 21:08 -41.65266 174.43224 9049 ft 303 kts 55°
2026-04-27 21:08 -41.64084 174.45544 8742 ft 300 kts 55°
2026-04-27 21:09 -41.62908 174.47847 8397 ft 299 kts 55°
2026-04-27 21:09 -41.61744 174.50127 8077 ft 296 kts 55°
2026-04-27 21:09 -41.60596 174.52371 7760 ft 294 kts 55°
2026-04-27 21:09 -41.59446 174.54616 7472 ft 291 kts 54°
2026-04-27 21:10 -41.58321 174.56808 7032 ft 283 kts 55°
2026-04-27 21:10 -41.57213 174.58969 6489 ft 279 kts 54°
2026-04-27 21:10 -41.56121 174.61098 5920 ft 276 kts 54°
2026-04-27 21:10 -41.55039 174.63202 5345 ft 274 kts 53°
2026-04-27 21:11 -41.53961 174.65296 4769 ft 272 kts 54°
2026-04-27 21:11 -41.52897 174.67361 4358 ft 262 kts 54°
2026-04-27 21:11 -41.51917 174.69272 4232 ft 244 kts 53°
2026-04-27 21:11 -41.50994 174.71074 4022 ft 229 kts 54°
2026-04-27 21:12 -41.50102 174.72805 3603 ft 225 kts 53°
2026-04-27 21:12 -41.49219 174.74511 3162 ft 222 kts 52°
2026-04-27 21:12 -41.48359 174.76177 2977 ft 212 kts 52°
2026-04-27 21:12 -41.47533 174.77777 2987 ft 207 kts 50°
2026-04-27 21:13 -41.46521 174.79112 2665 ft 205 kts 27°
2026-04-27 21:13 -41.45235 174.79801 2390 ft 193 kts
2026-04-27 21:13 -41.43957 174.79935 2099 ft 177 kts
2026-04-27 21:13 -41.42792 174.80012 1855 ft 158 kts
2026-04-27 21:14 -41.41755 174.80082 1661 ft 141 kts 359°
2026-04-27 21:14 -41.40792 174.80146 1475 ft 137 kts
2026-04-27 21:14 -41.39844 174.80209 1290 ft 135 kts
2026-04-27 21:14 -41.38906 174.80272 1100 ft 134 kts
2026-04-27 21:15 -41.37964 174.80333 951 ft 135 kts
2026-04-27 21:15 -41.37027 174.80374 796 ft 134 kts
2026-04-27 21:15 -41.36100 174.80448 642 ft 134 kts
2026-04-27 21:15 -41.35168 174.80522 435 ft 131 kts
2026-04-27 21:16 -41.34240 174.80583 232 ft 134 kts
2026-04-27 21:16 -41.33315 174.80645 44 ft 133 kts
2026-04-27 21:16 -41.32532 174.80700 30 ft 79 kts
2026-04-27 21:16 -41.32227 174.80720 39 ft 27 kts
2026-04-27 21:17 -41.32172 174.80817 44 ft 12 kts 104°
2026-04-27 21:17 -41.32258 174.80847 41 ft 15 kts 183°
2026-04-27 21:17 -41.32369 174.80839 37 ft 18 kts 183°
2026-04-27 21:17 -41.32489 174.80831 32 ft 18 kts 183°
2026-04-27 21:18 -41.32624 174.80822 27 ft 19 kts 183°
2026-04-27 21:18 -41.32757 174.80813 26 ft 20 kts 182°
2026-04-27 21:18 -41.32838 174.80857 26 ft 10 kts 116°
2026-04-27 21:18 -41.32846 174.80938 26 ft 7 kts 69°
2026-04-27 21:19 -41.32837 174.80966 26 ft 0 kts 66°
2026-04-27 21:19 -41.32835 174.80971 26 ft 0 kts 67°